Location: L�gaud
(45.7115°N, 1.7775°E)
Time: 13:28:20
(UTC+00:00)

Cosmos 1727 Rocket - Pass Details

Date: 03 March 2021
Orbit: 961 x 996 km, 82.9° (Epoch: 15 April)

Event Time Altitude Azimuth Distance (km) Brightness Sun altitude
Rises 20:27:37 0° 348° (NNW) 3,658 7.4 -29.1°
Reaches altitude 10° 20:30:08 10° 346° (NNW) 2,708 6.7 -29.5°
Maximum altitude 20:36:14 63° 267° (W) 1,070 4.3 -30.5°
Enters shadow 20:37:44 49° 213° (SSW) 1,235 4.5 -30.7°
